Flag for Switzerland Weather past 2 weeks in Biel, Switzerland

Now
42 °F

Quite cool.


Feels Like: 37 °F
Forecast: 28 / 52 °F
Wind: 8 mph from East

Location: Grenchen


UV Index: 3 (Moderate)

Visibility: N/A


Pressure: 30.24 "Hg

Humidity: 64%

Dew point: 31 °F

Location of BielLocation

Historic Weather in Biel

°F

Biel temperature yesterday

Maximum temperature yesterday: 55 °F (at 4:00 PM)
Minimum temperature yesterday: 31 °F (at 7:00 AM)
Average temperature yesterday: 44 °F

Past Weeks' High & Low Weather Summary

 TemperatureHumidityPressure
High69 °F (Apr 11, 6:00 PM)100% (Apr 2, 8:00 AM)30.37 "Hg (Apr 2, 8:00 AM)
Low31 °F (Apr 16, 7:00 AM)27% (Apr 16, 4:00 PM)29.66 "Hg (Apr 3, 2:00 PM)
Average52 °F67%30.06 "Hg
* Reported Apr 2 8:00 AM — Apr 17 8:00 AM, Biel, Weather by CustomWeather, © 2014

Note: Actual official high and low records may vary slightly from our data, if they occured in-between our weather recording intervals... More about our weather records

Advertising

Historic Weather Conditions — Data for Previous 24 hours

 ConditionsComfort  
Time TempWeatherWind HumidityBarometerVisibility
8:00 AM
Apr 17
37 °FChilly.2 mph79%30.27 "HgN/A
7:00 AM34 °FChilly.2 mph80%30.28 "HgN/A
6:00 AM34 °FChilly.7 mph77%30.28 "HgN/A
5:00 AM35 °FChilly.5 mph74%30.29 "HgN/A
4:00 AM38 °FChilly.5 mph68%30.28 "HgN/A
3:00 AM40 °FChilly.3 mph65%30.29 "HgN/A
2:00 AM42 °FQuite cool.10 mph60%30.29 "HgN/A
1:00 AM41 °FQuite cool.12 mph62%30.30 "HgN/A
12:00 AM40 °FQuite cool.6 mph61%30.31 "HgN/A
11:00 PM
Apr 16
41 °FQuite cool.12 mph60%30.32 "HgN/A
10:00 PM43 °FQuite cool.8 mph54%30.32 "HgN/A
9:00 PM46 °FCool.12 mph49%30.31 "HgN/A
8:00 PM49 °FCool.15 mph41%30.28 "HgN/A
7:00 PM52 °FCool.18 mph37%30.26 "HgN/A
6:00 PM54 °FCool.20 mph33%30.25 "HgN/A
5:00 PM55 °FCool.20 mph31%30.25 "HgN/A
4:00 PM55 °FRefreshingly cool.21 mph27%30.25 "HgN/A
3:00 PM55 °FCool.22 mph31%30.25 "HgN/A
2:00 PM53 °FCool.23 mph35%30.26 "HgN/A
1:00 PM52 °FCool.23 mph34%30.27 "HgN/A
12:00 PM50 °FCool.21 mph41%30.28 "HgN/A
11:00 AM47 °FCool.20 mph49%30.29 "HgN/A
10:00 AM44 °FQuite cool.18 mph55%30.31 "HgN/A
9:00 AM42 °FQuite cool.18 mph60%30.32 "HgN/A
Weather by CustomWeather, © 2014

See weather overview